sat.trackr.live / text

‹ back to catalog

STARLINK-4268

NORAD 53183 · 2022-083BD

PAYLOAD ACTIVE UNKNOWN

§ Identity

Operator
Country
US
Launch date
2022-07-17
Launch site
AFETR
Launch vehicle
Mass (kg)
RCS (m²)

Purposes: comms

External: N2YO · Heavens-Above · Gunter

§ Orbital elements

Epoch: 2026-09-20T04:59:22.081344Z

Period
93.79 min
Inclination
53.1598°
Eccentricity
0.0001188
Mean motion
15.35400782 rev/d
Perigee alt
458.9 km
Apogee alt
460.5 km
Semi-major
6,837.9 km
B*
2.8477e-5
RAAN
323.2125°
Arg perigee
87.2591°
Mean anomaly
272.8548°
Rev number
23,137

§ Raw data

STARLINK-42681 53183U 22083BD  26263.20789446  .00000613  00000+0  28477-4 0  99952 53183  53.1598 323.2125 0001188  87.2591 272.8548 15.35400782231378

JSON: /api/v1/satellites/53183 · /tle

For live sub-satellite position, see the globe view (requires WebGL).

§ Visibility from observer

Set your observer location to see the next 7 days of passes ≥ 10°. The values pass through the URL so the page stays shareable.

No JS? Fill the form by hand. The geolocation button needs JavaScript.